Vertical_Velocity
-0 1 -1 -0 -1 -1 -1 -1 -2 -2 -1 -1 -1 -2 1 2 1 2 2 2 -0 -1
-1 -1 -1 -0 0 -0 -1 -1 -1 -1 -1 -1 -1 -1 -2 -2 -1 -1 -1 2 3 4
-0 -1 -1 -1 -0 -0 -0 -0 -0 -1 -2 -2 -2 -2 -3 -3 -4 -2 -0 -2 -5 -4
-3 -3 -2 -2 -3 -3 -2 -2 -3 -2 -1 -0 1 3 4 3 1 -1 -1 1 2 2
2 -0 1 0 -1 -0 1 0 0 1 1 0 -0 -0 -2 -5 -3 2 1 -2 -0 -1
1 -3 -3 -2 -1 0 2 2 1 -0 -1 -1 -1 1 -0 -1 -1 -2 2 2 -1 1
-2 -4 -3 -2 -1 -2 -1 0 0 -1 -0 1 1 1 -2 -1 1 2 -2 -5 -3 -6
-0 -0 -2 -2 -2 -2 -1 0 1 -1 -1 -1 -4 -3 1 0 -2 -1 1 2 1 0
-1 -1 2 3 1 1 0 -1 -2 2 1 -2 -0 1 -6 -4 -3 -6 1 1 -0 -3
-1 0 1 2 1 2 1 1 3 2 0 1 -1 1 3 2 2 -0 0 -0 -1 -3
-1 -1 2 2 2 1 -0 -1 -1 -0 1 2 3 2 8 4 5 5 -0 2 3 2
0 0 -0 2 2 2 1 -0 0 -1 -1 -2 -0 -2 8 4 8 4 2 1 4 -2
-2 -3 -2 -1 -1 -0 -0 2 1 -0 1 -0 2 -8 -0 3 11 2 1 4 2 -0
-3 -3 -2 -0 0 -0 -2 -4 -1 1 4 1 3 -3 5 8 1 1 0 3 3 1
Height
3097 3094 3091 3089 3086 3082 3079 3076 3074 3071 3068 3065 3062 3059 3056 3053 3052 3049 3047 3045 3042 3040
3092 3090 3087 3084 3081 3078 3075 3072 3069 3066 3063 3060 3058 3055 3052 3049 3045 3043 3040 3038 3036 3033
3086 3084 3081 3078 3075 3072 3069 3067 3064 3062 3059 3056 3053 3050 3047 3045 3042 3039 3036 3033 3030 3027
3081 3078 3075 3072 3069 3066 3064 3061 3058 3056 3053 3050 3047 3044 3042 3039 3036 3033 3031 3028 3025 3023
3075 3071 3068 3065 3062 3059 3057 3055 3052 3050 3048 3045 3043 3039 3036 3034 3031 3028 3025 3022 3019 3016
3069 3065 3062 3059 3055 3052 3050 3048 3046 3043 3041 3038 3036 3033 3030 3027 3024 3022 3019 3016 3013 3010
3061 3057 3054 3051 3048 3045 3042 3040 3038 3036 3034 3032 3030 3027 3024 3021 3018 3015 3012 3010 3007 3004
3053 3049 3046 3043 3040 3037 3034 3032 3030 3028 3026 3024 3022 3021 3018 3015 3012 3009 3006 3003 3001 2998
3044 3040 3037 3034 3031 3028 3026 3023 3020 3019 3016 3015 3014 3013 3011 3009 3006 3004 3000 2997 2994 2991
3034 3031 3029 3026 3022 3020 3016 3013 3010 3008 3007 3005 3005 3004 3003 3001 2998 2996 2992 2989 2988 2985
3024 3021 3019 3017 3014 3011 3007 3004 3001 2999 2997 2995 2994 2993 2993 2992 2990 2986 2984 2982 2979 2977
3016 3012 3010 3007 3004 3002 2998 2995 2993 2991 2988 2986 2985 2983 2982 2980 2979 2977 2976 2974 2971 2969
3009 3005 3001 2998 2994 2991 2988 2986 2983 2981 2979 2977 2975 2973 2973 2971 2970 2968 2967 2965 2962 2961
3001 2997 2993 2989 2984 2980 2978 2975 2973 2970 2967 2966 2964 2963 2963 2961 2961 2960 2958 2957 2955 2954